{"data":{"norad_id":66581,"epoch":"2026-05-24T17:53:17.731104Z","epoch_age_seconds":107521,"freshness":"FRESH","line1":"1 66581U 25268AA  26144.74534411  .00017720  00000+0  65192-3 0  9997","line2":"2 66581  42.9993 277.3506 0001396 271.6977  88.3715 15.27579590 29599","mean_motion":15.2757959,"eccentricity":0.0001396,"inclination_deg":42.9993,"raan_deg":277.3506,"arg_perigee_deg":271.6977,"mean_anomaly_deg":88.3715,"bstar":0.00065192,"rev_number":2959,"period_min":94.266774014701,"perigee_km":482.09250197703,"apogee_km":484.00814547782,"semimajor_km":6861.1873237274,"source":"CELESTRAK","updated_at":"2026-05-25T13:38:21.285113Z"}}